Location: Unspecified
(0.0000°N, 0.0000°E)
Time: 16:51:42
(UTC+00:00)

ADRAS-J - Visible Passes

Search period start: 07 September 2024 00:00
Search period end: 17 September 2024 00:00
Orbit: 551 x 613 km, 98.2° (Epoch: 07 September)

Date Brightness Start Highest point End Pass type
(mag) Time Alt. Az. Time Alt. Az. Time Alt. Az.
11 Sep ? 04:10:02 10° N 04:10:03 10° N 04:10:03 10° N visible
12 Sep ? 04:15:31 10° N 04:15:35 10° N 04:15:35 10° N visible
13 Sep ? 04:21:00 10° N 04:21:06 11° N 04:21:06 11° N visible
14 Sep ? 04:26:30 10° N 04:26:36 11° N 04:26:36 11° N visible
15 Sep ? 04:32:00 10° NNW 04:32:06 10° NNW 04:32:06 10° NNW visible
16 Sep ? 04:37:32 10° NNW 04:37:34 10° NNW 04:37:34 10° NNW visible
